Wind_Speed
9 8 7 8 8 7 7 6 5 5 5 5 6 7 7 8 9 10 11 12 13 13 13 13 14 14 14 14 15 16 16 17 18 19 19 20 19 20 22 22 22 21 20 19 18 17 17 16 16
9 8 7 8 8 8 8 7 7 7 7 7 8 9 9 10 11 12 13 14 14 14 15 15 15 15 15 15 16 17 17 17 18 19 20 21 21 21 22 23 23 23 22 21 20 19 19 18 17
9 8 8 8 8 8 8 8 9 9 9 9 9 10 11 12 13 14 14 15 15 15 16 16 16 17 17 17 18 18 18 19 19 20 20 21 22 22 22 23 23 23 23 22 21 20 19 19 18
10 10 9 9 9 9 9 9 10 10 10 10 10 11 11 13 14 15 16 17 16 16 17 17 18 18 18 19 20 20 20 21 22 22 22 22 22 22 22 22 23 24 24 23 22 21 21 20 20
11 11 10 10 11 10 8 10 11 11 11 10 11 12 12 13 14 15 16 17 17 16 17 17 17 18 19 19 20 21 22 23 24 25 25 25 25 24 24 23 24 24 23 24 24 23 22 22 21
13 12 12 12 13 11 10 10 10 11 12 12 13 13 13 14 14 15 16 17 16 16 15 16 16 17 18 18 20 21 22 23 24 25 26 26 26 26 26 26 26 25 25 25 24 24 23 22 22
14 14 14 14 13 12 12 10 11 12 13 13 14 13 12 13 15 15 15 16 15 15 15 15 16 17 18 18 19 20 21 22 23 24 25 25 25 26 26 26 26 26 26 26 25 24 24 24 23
16 15 15 15 14 12 12 12 13 14 14 14 14 14 13 13 14 14 14 14 14 14 15 15 16 16 17 17 18 19 19 21 22 23 25 25 25 25 26 26 25 26 26 26 25 24 24 24 24
17 15 15 15 15 12 11 12 13 14 14 14 14 13 13 14 13 13 13 12 12 13 14 14 15 16 16 17 17 19 19 19 21 22 24 25 25 25 26 26 26 26 26 26 26 25 24 25 25
17 15 14 15 15 13 13 13 14 14 14 14 13 13 13 13 13 12 12 11 11 12 13 14 14 15 16 16 17 18 19 19 19 20 22 23 24 25 26 26 26 27 27 27 26 26 26 26 25
18 17 16 15 14 14 14 13 13 13 14 13 12 12 12 12 12 11 11 10 11 12 13 13 14 15 16 17 17 18 19 19 19 20 21 22 23 24 24 25 25 26 28 27 27 28 27 26 26
18 17 16 15 13 13 14 13 12 13 13 13 12 11 12 12 10 10 9 10 10 11 12 13 14 15 16 17 18 18 19 19 19 20 20 21 21 22 23 23 24 25 26 27 28 29 29 28 27
19 18 16 17 15 14 13 13 13 12 12 13 13 12 10 10 10 9 9 9 10 11 12 13 14 15 16 17 18 19 19 19 19 19 20 20 20 21 22 22 22 23 25 26 26 28 28 28 28
19 17 16 16 15 14 14 14 13 12 12 12 11 10 10 9 8 8 8 9 10 11 12 13 14 16 17 18 18 18 19 19 19 20 20 20 20 20 20 20 20 21 23 24 25 26 27 28 28
18 15 16 16 15 14 15 14 13 12 11 11 11 9 9 8 7 7 7 8 10 11 12 13 15 16 17 18 18 18 19 19 19 20 20 20 19 19 19 18 18 20 21 22 23 24 25 27 28
18 16 16 15 14 13 13 13 12 11 11 11 10 9 8 7 7 7 7 8 9 11 12 14 15 17 18 18 19 19 19 19 19 20 20 19 19 18 17 17 17 17 19 20 21 22 24 25 26
16 14 13 13 12 11 11 12 12 10 10 10 10 9 7 6 6 6 7 7 9 11 12 14 16 17 18 18 19 19 19 19 19 19 19 19 18 17 15 15 16 16 17 18 20 21 23 24 25
13 13 12 12 10 8 10 11 11 9 9 9 8 8 7 6 6 6 7 8 9 11 12 14 15 16 17 19 19 20 19 19 18 18 18 18 17 16 14 14 14 15 15 16 18 20 21 23 25
13 12 11 12 11 8 9 10 10 9 8 8 8 8 7 6 5 6 7 8 9 11 12 14 15 16 18 18 19 19 19 18 18 18 18 17 16 15 14 13 13 14 14 14 16 18 20 21 24
13 11 11 12 10 8 9 9 9 9 8 8 8 8 7 6 5 6 7 8 9 11 12 14 15 16 17 18 19 19 19 18 18 18 18 17 16 15 14 13 12 12 12 12 13 15 18 20 22
12 11 10 9 7 7 7 7 9 8 7 8 8 7 7 7 6 5 7 8 9 11 12 13 15 16 17 18 19 19 19 18 18 18 18 17 16 15 13 12 11 10 10 11 11 12 15 17 19
11 10 9 8 7 6 7 7 8 9 7 8 8 7 7 7 7 7 8 8 9 10 12 13 14 16 17 18 18 19 19 18 18 18 18 17 16 14 13 12 10 9 8 9 10 10 11 14 16
9 8 7 7 6 6 6 6 8 11 10 8 7 7 7 8 8 8 8 9 9 10 12 13 14 15 16 17 18 18 18 18 19 18 17 16 16 14 13 11 9 7 7 7 7 8 10 11 13
7 6 4 3 3 5 6 7 7 9 10 9 8 8 8 8 9 9 9 9 9 10 11 12 13 15 16 17 17 18 18 18 18 18 17 16 16 14 13 11 9 7 6 5 5 6 8 9 11
6 5 3 1 3 5 8 10 9 10 10 11 9 8 8 8 9 9 8 8 9 10 11 12 13 14 15 16 17 17 18 18 18 18 17 16 16 15 13 12 10 7 6 4 4 5 6 7 9
5 5 4 3 3 6 8 10 11 11 11 11 10 10 10 9 9 8 8 8 8 9 10 11 12 13 14 15 16 17 18 18 18 18 17 16 15 15 14 12 11 9 6 4 3 4 5 6 7
5 5 7 6 4 4 5 10 13 12 11 11 10 10 10 10 9 9 8 8 8 9 10 11 11 12 13 14 15 17 18 18 19 18 17 16 15 15 14 13 12 10 8 5 3 3 4 5 6
5 6 6 6 5 3 3 8 14 13 12 11 11 11 11 10 10 9 8 8 8 9 10 10 11 12 13 13 15 16 17 18 18 18 17 16 15 15 15 14 12 11 9 7 5 4 3 3 4
6 7 7 7 6 6 8 9 14 15 14 13 12 12 12 11 11 10 9 9 9 9 9 10 10 11 12 13 14 15 16 17 18 18 18 17 16 16 15 14 13 11 9 8 6 5 4 3 3
9 9 9 10 9 10 12 12 14 15 15 14 13 13 12 12 11 11 11 10 10 9 9 10 10 11 11 13 14 15 15 16 17 18 17 17 16 16 16 15 14 13 11 9 8 6 4 3 2
Wind_Direction
305 320 325 329 331 332 327 319 315 317 309 302 296 290 291 296 293 291 291 291 294 293 290 289 290 289 283 279 276 279 275 269 264 259 256 252 251 247 245 244 243 242 241 241 241 240 240 240 240
295 305 311 318 323 325 319 318 315 316 308 298 294 290 290 291 291 290 289 290 292 292 290 289 288 287 283 278 276 277 276 272 266 263 263 260 256 254 249 246 245 244 243 242 241 241 240 239 241
286 292 298 305 309 309 309 313 315 313 307 297 296 291 291 291 291 292 291 291 292 291 289 288 287 287 283 279 277 278 275 273 270 267 268 267 261 259 253 249 246 244 244 243 243 241 240 239 240
278 282 285 292 292 292 296 303 307 309 302 296 298 300 298 295 296 294 293 293 293 292 289 288 287 286 283 281 280 278 275 271 270 270 270 267 263 260 256 252 247 244 244 243 242 241 239 238 239
267 272 277 281 282 285 286 293 302 306 302 296 299 305 304 301 301 299 298 298 294 292 291 291 290 289 286 283 281 281 279 277 274 271 270 269 266 262 260 257 253 249 247 246 244 242 241 238 238
260 265 269 271 277 281 291 295 299 307 304 300 300 302 305 305 305 305 302 301 298 296 296 296 295 295 291 288 287 285 282 280 277 275 274 270 267 263 261 258 255 253 249 246 244 242 241 240 238
255 259 264 270 275 280 289 296 301 306 307 302 301 304 305 305 308 308 306 304 302 301 300 299 298 298 296 294 292 289 287 284 281 278 277 274 270 266 263 260 255 254 251 247 244 243 240 239 239
253 257 263 268 276 282 291 300 305 307 308 305 303 303 306 308 310 311 310 309 307 306 307 308 307 304 301 299 298 295 292 288 284 280 277 275 274 270 267 263 258 256 254 250 245 243 240 238 238
250 256 261 267 276 282 292 297 302 303 303 303 305 305 308 309 311 311 311 311 312 315 315 316 314 312 310 308 305 303 301 296 290 285 281 278 275 272 270 268 264 259 255 252 247 243 241 239 238
246 250 257 265 272 285 294 298 299 302 303 303 302 304 307 309 311 311 311 313 317 320 321 320 318 318 317 316 313 310 307 302 298 293 287 283 279 275 271 269 265 259 255 253 250 246 242 241 239
242 247 254 262 267 281 293 297 298 303 303 303 304 306 307 311 311 313 316 321 324 327 328 327 326 323 321 319 317 314 312 309 305 301 296 290 284 279 274 269 265 261 257 254 250 247 243 241 240
242 245 251 261 272 277 286 292 295 301 303 304 307 308 308 311 311 314 321 325 329 331 332 332 330 328 327 324 321 318 315 314 311 307 303 297 290 283 276 270 265 260 258 255 252 249 245 243 240
238 242 250 261 271 275 279 289 296 296 297 299 307 308 305 309 312 314 320 326 333 336 337 336 335 333 331 328 325 321 319 316 314 311 308 302 296 288 281 273 267 260 256 254 252 248 246 244 240
234 235 243 256 266 273 279 284 290 294 294 298 301 302 304 308 310 314 319 326 333 336 338 339 338 336 334 332 329 327 324 321 318 315 312 307 301 293 285 277 268 261 256 253 250 246 244 242 238
231 235 242 252 263 272 279 282 288 293 295 297 296 296 301 302 304 309 315 324 332 337 338 338 338 337 336 334 333 331 328 325 321 318 316 312 306 298 288 280 270 263 258 253 248 244 240 239 237
226 233 241 248 255 270 278 281 286 294 296 295 294 295 296 297 301 308 314 323 332 337 337 338 338 338 337 335 333 331 329 327 324 322 320 316 311 304 294 284 275 267 259 253 249 242 238 236 235
219 231 246 255 259 267 276 284 289 294 295 295 292 293 291 291 296 306 314 324 331 335 338 338 338 338 337 337 336 334 332 330 328 326 324 321 314 308 298 289 280 272 262 254 249 243 238 235 233
217 224 239 255 265 273 281 289 290 295 298 297 293 291 288 289 296 303 311 323 330 335 338 339 340 339 339 339 339 338 336 334 332 330 328 325 319 311 305 294 285 277 267 257 250 244 240 235 232
215 221 231 248 266 284 290 292 292 298 299 297 294 289 283 288 295 300 311 324 330 335 337 339 341 342 342 342 342 341 340 338 337 336 333 331 326 318 309 301 291 282 273 261 251 246 239 235 231
216 222 231 250 265 286 293 295 297 298 295 294 295 291 287 290 291 298 311 322 327 332 336 339 342 344 345 345 345 345 343 342 341 340 338 336 333 327 321 313 301 288 276 265 255 248 241 235 231
215 229 234 250 270 282 285 297 300 298 296 297 294 290 289 290 292 296 307 317 324 330 335 339 343 345 346 346 347 347 346 345 344 343 342 340 338 333 329 323 311 296 281 270 259 251 243 236 232
217 228 240 255 279 289 291 305 301 297 297 293 288 283 283 287 290 297 306 314 321 328 333 338 343 346 348 349 349 349 349 348 347 346 345 345 344 340 337 332 321 303 288 274 260 252 247 238 233
228 238 245 257 277 287 302 313 310 296 297 295 286 281 280 282 287 293 301 308 317 325 332 338 342 346 348 350 351 351 351 352 352 351 351 351 350 348 345 341 337 324 304 282 260 251 249 244 236
232 236 248 267 309 324 308 305 297 287 294 297 291 282 279 282 285 291 299 306 316 324 331 336 341 345 348 351 353 353 353 354 356 356 356 356 355 353 353 352 347 336 318 294 264 249 247 242 236
232 235 230 285 339 319 301 302 282 282 292 294 290 285 279 281 283 288 295 303 314 323 330 335 339 344 348 352 355 356 356 357 358 359 359 359 360 0 0 1 357 351 337 312 279 260 250 244 236
238 240 256 262 268 291 308 309 296 297 294 289 286 285 283 282 283 285 291 301 313 321 328 334 338 343 348 352 355 357 358 359 0 1 0 0 2 2 3 3 4 360 353 334 300 267 255 244 236
244 248 259 269 276 300 323 305 299 293 292 287 281 280 280 280 280 280 286 297 309 319 327 333 338 344 347 350 353 357 359 1 2 3 3 3 5 5 5 5 6 6 6 358 341 299 269 251 241
265 262 267 273 281 280 279 293 288 291 294 288 283 278 277 277 276 276 282 291 302 313 323 330 336 342 347 351 353 356 359 2 4 5 6 7 8 8 7 8 9 10 12 10 356 335 314 278 252
292 285 280 279 278 273 262 263 279 289 290 289 284 279 276 274 272 273 278 286 295 306 317 326 334 340 347 351 354 355 358 2 4 6 8 10 11 10 10 11 12 12 11 9 3 355 342 321 291
299 289 280 277 272 268 275 281 282 287 288 285 283 278 275 273 269 270 273 280 287 296 308 318 328 336 341 348 351 353 355 359 3 6 8 10 12 13 12 12 14 15 15 12 10 6 2 348 332
Height
5868 5867 5867 5867 5866 5866 5865 5864 5863 5864 5864 5864 5864 5864 5864 5865 5865 5867 5864 5862 5862 5862 5861 5860 5860 5860 5859 5859 5858 5858 5858 5858 5857 5858 5858 5858 5859 5859 5860 5861 5862 5863 5863 5864 5865 5866 5867 5867 5868
5867 5867 5867 5866 5865 5865 5864 5863 5863 5863 5864 5863 5863 5863 5863 5863 5863 5862 5861 5860 5860 5859 5859 5858 5857 5857 5856 5856 5855 5855 5855 5854 5854 5854 5854 5855 5855 5856 5856 5857 5858 5859 5860 5861 5862 5863 5864 5865 5866
5866 5866 5867 5866 5865 5864 5863 5863 5863 5863 5862 5862 5862 5862 5862 5861 5861 5860 5859 5858 5857 5857 5856 5855 5854 5854 5853 5852 5852 5852 5851 5851 5851 5851 5851 5851 5851 5852 5853 5853 5854 5856 5857 5858 5859 5860 5861 5862 5863
5865 5865 5865 5865 5864 5863 5862 5862 5862 5861 5861 5860 5860 5860 5860 5859 5858 5857 5856 5855 5855 5854 5853 5852 5851 5850 5850 5849 5848 5848 5848 5847 5847 5847 5847 5847 5847 5848 5848 5849 5850 5851 5853 5854 5856 5857 5858 5859 5860
5863 5863 5863 5863 5862 5861 5860 5860 5860 5860 5859 5859 5859 5859 5858 5857 5856 5855 5853 5852 5852 5851 5850 5848 5848 5847 5846 5846 5845 5844 5843 5843 5842 5842 5842 5842 5842 5843 5844 5845 5846 5847 5849 5850 5851 5853 5855 5856 5857
5860 5861 5861 5860 5860 5858 5858 5858 5858 5858 5858 5857 5856 5856 5855 5854 5853 5852 5850 5849 5848 5847 5847 5845 5844 5844 5843 5842 5841 5840 5839 5838 5837 5837 5836 5836 5837 5838 5839 5840 5841 5842 5844 5846 5847 5849 5851 5852 5854
5858 5859 5858 5858 5857 5857 5857 5856 5856 5856 5856 5855 5854 5853 5852 5852 5851 5849 5848 5846 5845 5844 5843 5843 5841 5840 5839 5838 5837 5836 5835 5834 5833 5832 5831 5831 5832 5832 5833 5834 5835 5837 5839 5841 5842 5844 5846 5848 5850
5854 5857 5856 5856 5855 5855 5855 5855 5854 5854 5854 5853 5852 5851 5851 5850 5848 5847 5846 5844 5842 5841 5840 5839 5838 5837 5836 5834 5833 5832 5830 5829 5828 5827 5826 5826 5826 5826 5827 5828 5829 5831 5833 5835 5837 5840 5842 5844 5846
5851 5854 5853 5853 5853 5853 5852 5853 5853 5852 5852 5851 5850 5849 5848 5847 5846 5845 5844 5842 5840 5839 5838 5837 5835 5834 5832 5831 5829 5827 5826 5824 5823 5822 5821 5820 5820 5820 5821 5822 5823 5825 5827 5829 5831 5834 5837 5839 5842
5849 5851 5851 5851 5851 5851 5851 5851 5851 5851 5850 5849 5848 5847 5846 5845 5844 5843 5842 5840 5839 5837 5836 5834 5833 5831 5829 5828 5826 5824 5822 5820 5819 5817 5816 5815 5815 5815 5815 5816 5817 5819 5820 5823 5825 5828 5831 5834 5836
5845 5847 5847 5848 5847 5849 5849 5849 5849 5848 5848 5847 5846 5845 5843 5842 5842 5841 5840 5839 5837 5836 5834 5833 5831 5829 5827 5825 5823 5821 5819 5817 5815 5813 5811 5810 5809 5809 5809 5810 5811 5812 5814 5816 5819 5822 5825 5828 5831
5842 5843 5845 5845 5845 5847 5848 5847 5847 5847 5846 5845 5844 5843 5842 5841 5840 5839 5838 5837 5836 5835 5833 5831 5829 5827 5825 5823 5820 5818 5816 5813 5811 5809 5807 5805 5804 5803 5803 5804 5804 5806 5807 5810 5812 5816 5819 5822 5825
5839 5841 5842 5843 5844 5845 5846 5845 5845 5845 5844 5843 5842 5842 5841 5840 5839 5838 5837 5836 5835 5833 5832 5830 5828 5825 5823 5820 5818 5815 5813 5810 5808 5805 5803 5801 5799 5798 5797 5798 5798 5800 5801 5803 5806 5809 5812 5816 5819
5835 5837 5840 5841 5842 5843 5844 5844 5843 5843 5843 5842 5841 5841 5839 5838 5837 5837 5836 5835 5833 5832 5831 5829 5826 5824 5821 5818 5816 5813 5810 5807 5804 5801 5799 5796 5795 5793 5792 5792 5793 5794 5795 5797 5799 5802 5805 5809 5813
5831 5834 5837 5839 5840 5841 5842 5842 5842 5841 5841 5840 5840 5839 5838 5837 5836 5836 5835 5834 5833 5831 5829 5827 5825 5822 5820 5817 5814 5811 5807 5804 5801 5798 5795 5792 5790 5788 5787 5787 5787 5788 5789 5791 5793 5796 5799 5803 5806
5829 5832 5835 5836 5837 5838 5841 5840 5839 5839 5839 5838 5838 5837 5837 5836 5835 5835 5834 5833 5832 5830 5828 5826 5824 5821 5818 5815 5812 5809 5805 5802 5798 5795 5792 5789 5786 5784 5783 5782 5782 5783 5784 5786 5788 5790 5793 5796 5800
5826 5830 5832 5834 5834 5836 5838 5838 5837 5837 5836 5836 5836 5836 5835 5835 5834 5834 5833 5832 5831 5829 5827 5825 5823 5820 5817 5814 5810 5807 5803 5800 5796 5792 5789 5786 5783 5780 5779 5778 5778 5778 5779 5780 5782 5785 5787 5790 5794
5825 5829 5831 5832 5832 5834 5835 5836 5835 5835 5835 5835 5834 5834 5834 5833 5833 5833 5832 5831 5830 5828 5826 5824 5822 5819 5816 5812 5809 5805 5801 5798 5794 5790 5787 5783 5780 5777 5776 5775 5774 5774 5775 5775 5777 5779 5782 5785 5788
5825 5827 5829 5831 5831 5832 5834 5834 5834 5834 5834 5833 5833 5833 5832 5832 5832 5832 5831 5830 5829 5827 5825 5823 5821 5818 5815 5811 5807 5804 5800 5796 5792 5788 5785 5781 5778 5775 5773 5772 5771 5770 5771 5771 5772 5774 5777 5780 5783
5824 5826 5828 5830 5830 5832 5832 5833 5832 5832 5832 5832 5832 5832 5831 5831 5831 5831 5830 5829 5828 5827 5824 5822 5820 5817 5813 5810 5806 5802 5798 5795 5791 5787 5783 5779 5776 5773 5771 5769 5768 5767 5767 5768 5769 5770 5772 5775 5778
5823 5825 5827 5828 5828 5830 5831 5832 5831 5831 5831 5831 5831 5831 5830 5830 5830 5830 5829 5828 5827 5826 5824 5821 5819 5816 5813 5809 5805 5801 5797 5794 5790 5786 5782 5778 5775 5771 5769 5767 5765 5764 5764 5764 5765 5766 5768 5770 5773
5823 5825 5827 5828 5829 5830 5831 5831 5831 5830 5830 5830 5830 5830 5830 5829 5829 5829 5828 5828 5826 5825 5823 5821 5818 5815 5812 5808 5805 5801 5797 5793 5789 5785 5781 5777 5773 5770 5767 5765 5763 5762 5761 5762 5762 5763 5765 5767 5769
5823 5825 5827 5828 5829 5830 5830 5831 5832 5829 5829 5829 5829 5829 5829 5828 5828 5828 5827 5826 5825 5824 5822 5820 5817 5814 5811 5808 5804 5800 5796 5792 5788 5784 5780 5776 5773 5770 5766 5763 5761 5760 5759 5760 5760 5761 5762 5764 5766
5824 5826 5827 5828 5829 5830 5830 5831 5831 5829 5828 5828 5828 5828 5828 5827 5827 5827 5826 5825 5824 5823 5821 5819 5816 5814 5811 5807 5804 5800 5796 5792 5788 5784 5780 5776 5773 5769 5766 5763 5761 5759 5758 5758 5758 5759 5760 5762 5763
5824 5826 5827 5828 5829 5830 5829 5830 5829 5828 5828 5827 5827 5827 5826 5826 5826 5825 5825 5824 5823 5822 5820 5818 5816 5813 5810 5807 5804 5800 5796 5792 5788 5784 5780 5776 5773 5769 5766 5763 5761 5759 5758 5758 5758 5758 5759 5760 5761
5824 5826 5827 5827 5828 5828 5828 5828 5828 5827 5827 5826 5826 5825 5825 5825 5824 5824 5824 5823 5822 5821 5819 5817 5815 5813 5810 5807 5804 5800 5797 5792 5788 5784 5780 5777 5773 5770 5767 5764 5762 5760 5758 5757 5757 5758 5758 5759 5760
5824 5825 5826 5826 5826 5827 5829 5829 5827 5825 5825 5825 5825 5824 5824 5823 5823 5823 5822 5822 5821 5820 5818 5816 5814 5812 5810 5807 5804 5800 5797 5793 5789 5785 5781 5777 5774 5771 5768 5765 5762 5760 5759 5758 5757 5757 5758 5758 5759
5824 5824 5824 5825 5825 5826 5828 5828 5825 5823 5823 5823 5823 5822 5822 5822 5821 5821 5821 5820 5820 5819 5817 5816 5814 5812 5809 5806 5804 5801 5797 5793 5790 5786 5782 5778 5775 5772 5769 5766 5763 5761 5759 5758 5757 5757 5757 5757 5758
5823 5823 5823 5823 5824 5824 5825 5826 5823 5822 5821 5821 5821 5820 5820 5820 5820 5819 5819 5819 5818 5817 5816 5815 5813 5811 5809 5806 5804 5801 5798 5794 5790 5787 5783 5779 5776 5773 5770 5767 5764 5762 5760 5759 5758 5757 5757 5757 5757
5821 5822 5822 5822 5822 5822 5822 5825 5821 5819 5819 5818 5818 5818 5817 5817 5817 5817 5817 5817 5817 5816 5815 5814 5812 5810 5808 5806 5803 5801 5798 5795 5791 5788 5784 5781 5777 5774 5771 5768 5766 5763 5761 5760 5758 5757 5757 5756 5757